アトラス彗星

C/2025 L1 ( ATLAS )

English version
Home page
Updated on August 30, 2025

---------------------------------------------------------------------

・ プロフィール

発見日 2025年6月6日
発見光度 18.2等
発見者 A. Fitzsimmons (Asteroid Terrestrial-Impact Last Alert System (ATLAS) search program)

・ 写真集

・ 軌道要素

Epoch 2025 May 5.0 TT = JDT 2460800.5
T 2026 Jan. 12.75309 TT                                 Pike
q   1.6794405            (2000.0)            P               Q
z  -0.0007797      Peri.  341.26095     -0.77344090     -0.46580326
 +/-0.0000374      Node   208.10506     -0.39900471     -0.16921690
e   1.0013095      Incl.  114.13691     -0.49252859     +0.86855798
From 59 observations 2024 Oct. 1-2025 Aug. 5, mean residual 0".4.

・ 星図

・ 光度変化

        m1 = 10.5 + 5 logΔ + 10.0 log r

---------------------------------------------------------------------

軌道要素はM.P.E.C. 2025-P113に掲載されたものです。
星図はステラナビゲータ Ver.11 (アストロアーツ) で作成したものです。
光度グラフはComet for Windowsで作成したものです。

---------------------------------------------------------------------

Copyright(C) Seiichi Yoshida (comet@aerith.net). All rights reserved.